Location: Newark
(33.4453°N, 112.0669°W)
Time: 09:13:50
(UTC+00:00)

Vanguard 2 - Visible Passes

Search period start: 17 February 2020 00:00
Search period end: 27 February 2020 00:00
Orbit: 552 x 2939 km, 32.9° (Epoch: 17 February)

Date Brightness Start Highest point End Pass type
(mag) Time Alt. Az. Time Alt. Az. Time Alt. Az.
17 Feb 10.9 09:21:45 28° ESE 09:21:45 28° ESE 09:29:44 10° E visible
17 Feb 9.8 11:23:10 57° SW 11:26:50 74° SSE 11:44:24 10° E visible
17 Feb 10.4 13:24:34 11° W 13:39:44 89° S 13:57:52 10° E visible
18 Feb 10.6 09:38:38 36° ESE 09:38:38 36° ESE 09:48:24 10° E visible
18 Feb 9.8 11:40:02 51° WSW 11:44:54 81° SSE 12:02:45 10° E visible
18 Feb 10.5 13:42:29 10° W 13:58:04 87° S 14:16:06 10° E visible
19 Feb 10.3 09:55:28 46° ESE 09:55:28 46° ESE 10:06:52 10° ENE visible
19 Feb 9.9 11:56:52 43° WSW 12:03:05 86° S 12:21:04 10° E visible
20 Feb 10.0 10:12:15 57° ESE 10:12:15 57° ESE 10:25:15 10° E visible
20 Feb 10.0 12:13:40 35° W 12:21:20 88° S 12:39:25 10° E visible
21 Feb 11.5 08:27:38 13° E 08:27:38 13° E 08:29:01 10° E visible
21 Feb 9.7 10:29:02 69° ESE 10:29:02 69° ESE 10:43:37 10° E visible
21 Feb 10.1 12:30:26 28° W 12:39:36 88° S 12:57:46 10° E visible
22 Feb 11.2 08:44:23 18° E 08:44:23 18° E 08:47:37 10° E visible
22 Feb 9.5 10:45:48 82° SSE 10:45:48 82° SSE 11:01:58 10° E visible
22 Feb 10.1 12:47:12 21° W 12:57:52 86° S 13:16:02 10° ESE visible
23 Feb 11.0 09:01:09 24° E 09:01:09 24° E 09:06:03 10° E visible
23 Feb 9.4 11:02:33 79° WSW 11:03:41 87° S 11:20:20 10° E visible
23 Feb 10.2 13:03:57 16° W 13:16:06 81° SSW 13:34:15 10° ESE visible
24 Feb 10.7 09:17:54 30° E 09:17:54 30° E 09:24:24 10° E visible
24 Feb 9.4 11:19:18 65° W 11:21:51 88° S 11:38:43 10° E visible
24 Feb 10.3 13:20:42 11° W 13:34:16 75° SSW 13:52:18 10° ESE visible
25 Feb 10.4 09:34:41 37° E 09:34:41 37° E 09:42:45 10° E visible
25 Feb 9.5 11:36:05 53° W 11:40:03 87° S 11:57:05 10° E visible
26 Feb 10.1 09:51:27 46° E 09:51:27 46° E 10:01:06 10° E visible
26 Feb 9.7 11:52:51 43° W 11:58:14 84° S 12:15:23 10° ESE visible
